QPF
0.00 0.00 0.00 0.00 0.00 0.00 0.00 0.00 0.00 0.00 0.00 0.00 0.00 0.00 0.00 0.00 0.00 0.00 0.00 0.00 0.00 0.00 0.00 0.00 0.00 0.00 0.00 0.00 0.00 0.00 0.00 0.00 0.00 0.00 0.00 0.00 0.00 0.00 0.00 0.00 0.00 0.00 0.00 0.00
0.00 0.00 0.00 0.00 0.00 0.00 0.00 0.00 0.00 0.00 0.00 0.00 0.00 0.00 0.00 0.00 0.00 0.00 0.00 0.00 0.00 0.00 0.00 0.00 0.00 0.00 0.00 0.00 0.00 0.00 0.00 0.00 0.00 0.00 0.00 0.00 0.00 0.00 0.00 0.00 0.00 0.00 0.00 0.00
0.00 0.00 0.00 0.00 0.00 0.00 0.00 0.00 0.00 0.00 0.00 0.00 0.00 0.00 0.00 0.00 0.00 0.00 0.00 0.00 0.00 0.00 0.00 0.00 0.00 0.00 0.00 0.00 0.00 0.00 0.00 0.00 0.00 0.00 0.00 0.00 0.00 0.00 0.00 0.00 0.00 0.00 0.00 0.00
0.00 0.00 0.00 0.00 0.00 0.00 0.00 0.00 0.00 0.00 0.00 0.00 0.00 0.00 0.00 0.00 0.00 0.00 0.00 0.00 0.00 0.00 0.00 0.00 0.00 0.00 0.00 0.00 0.00 0.00 0.00 0.00 0.00 0.00 0.00 0.00 0.00 0.00 0.00 0.00 0.00 0.00 0.00 0.00
0.00 0.00 0.00 0.00 0.00 0.00 0.00 0.00 0.00 0.00 0.00 0.00 0.00 0.00 0.00 0.00 0.00 0.00 0.00 0.00 0.00 0.00 0.00 0.00 0.00 0.00 0.00 0.00 0.00 0.00 0.00 0.00 0.00 0.00 0.00 0.00 0.00 0.00 0.00 0.00 0.00 0.00 0.00 0.00
0.00 0.00 0.00 0.00 0.00 0.00 0.00 0.00 0.00 0.00 0.00 0.00 0.00 0.00 0.00 0.00 0.00 0.00 0.00 0.00 0.00 0.00 0.00 0.00 0.00 0.00 0.00 0.00 0.00 0.00 0.00 0.00 0.00 0.00 0.00 0.00 0.00 0.00 0.00 0.00 0.00 0.00 0.00 0.00
0.00 0.00 0.00 0.00 0.00 0.00 0.00 0.00 0.00 0.00 0.00 0.00 0.00 0.00 0.00 0.00 0.00 0.00 0.00 0.00 0.00 0.00 0.00 0.00 0.00 0.00 0.00 0.00 0.00 0.00 0.00 0.00 0.00 0.00 0.00 0.00 0.00 0.00 0.00 0.00 0.00 0.00 0.01 0.00
0.00 0.00 0.00 0.00 0.00 0.00 0.00 0.00 0.00 0.00 0.00 0.00 0.00 0.00 0.00 0.00 0.00 0.00 0.00 0.00 0.00 0.00 0.00 0.00 0.00 0.00 0.00 0.00 0.00 0.00 0.00 0.00 0.00 0.00 0.00 0.00 0.00 0.00 0.00 0.00 0.00 0.01 0.01 0.00
0.00 0.00 0.00 0.00 0.00 0.00 0.00 0.00 0.00 0.00 0.00 0.00 0.00 0.00 0.00 0.00 0.00 0.00 0.00 0.00 0.00 0.00 0.00 0.00 0.00 0.00 0.00 0.00 0.00 0.00 0.00 0.00 0.00 0.00 0.00 0.00 0.00 0.00 0.00 0.00 0.00 0.00 0.00 0.00
0.00 0.00 0.00 0.00 0.00 0.00 0.00 0.00 0.00 0.00 0.00 0.00 0.00 0.00 0.00 0.00 0.00 0.00 0.00 0.00 0.00 0.00 0.00 0.00 0.00 0.00 0.00 0.00 0.00 0.00 0.00 0.00 0.00 0.00 0.00 0.00 0.00 0.00 0.00 0.00 0.00 0.00 0.00 0.00
0.00 0.00 0.00 0.00 0.00 0.00 0.00 0.00 0.00 0.00 0.00 0.00 0.00 0.00 0.00 0.00 0.00 0.00 0.00 0.00 0.00 0.00 0.00 0.00 0.00 0.00 0.00 0.00 0.00 0.00 0.00 0.00 0.00 0.00 0.00 0.00 0.00 0.00 0.00 0.00 0.00 0.00 0.00 0.00
0.00 0.00 0.00 0.00 0.00 0.00 0.00 0.00 0.00 0.00 0.00 0.00 0.00 0.00 0.00 0.00 0.00 0.00 0.00 0.00 0.00 0.00 0.00 0.00 0.00 0.00 0.00 0.00 0.00 0.00 0.00 0.00 0.00 0.00 0.00 0.00 0.00 0.00 0.00 0.00 0.00 0.00 0.00 0.00
0.00 0.00 0.00 0.00 0.00 0.00 0.00 0.00 0.00 0.00 0.00 0.00 0.00 0.00 0.00 0.00 0.00 0.00 0.00 0.00 0.00 0.00 0.00 0.00 0.00 0.00 0.00 0.00 0.00 0.00 0.00 0.00 0.00 0.00 0.00 0.00 0.00 0.00 0.00 0.00 0.00 0.00 0.00 0.00
0.00 0.00 0.00 0.00 0.00 0.00 0.00 0.00 0.00 0.00 0.00 0.00 0.00 0.00 0.00 0.00 0.00 0.00 0.00 0.00 0.00 0.00 0.00 0.00 0.00 0.00 0.00 0.00 0.00 0.00 0.00 0.00 0.00 0.00 0.00 0.00 0.00 0.00 0.00 0.00 0.00 0.00 0.00 0.00
0.00 0.00 0.00 0.00 0.00 0.00 0.00 0.00 0.00 0.00 0.00 0.00 0.00 0.00 0.00 0.00 0.00 0.00 0.00 0.00 0.00 0.00 0.00 0.00 0.00 0.00 0.00 0.00 0.00 0.00 0.00 0.00 0.00 0.00 0.00 0.00 0.00 0.00 0.00 0.00 0.00 0.00 0.00 0.00
0.00 0.00 0.00 0.00 0.00 0.00 0.00 0.00 0.00 0.00 0.00 0.00 0.00 0.00 0.00 0.00 0.00 0.00 0.00 0.00 0.00 0.00 0.00 0.00 0.00 0.00 0.00 0.00 0.00 0.00 0.00 0.00 0.00 0.00 0.00 0.00 0.00 0.00 0.00 0.00 0.00 0.00 0.00 0.00
0.00 0.00 0.00 0.00 0.00 0.00 0.00 0.00 0.00 0.00 0.00 0.00 0.00 0.00 0.00 0.00 0.00 0.00 0.00 0.00 0.00 0.00 0.00 0.00 0.00 0.00 0.00 0.00 0.00 0.00 0.00 0.00 0.00 0.00 0.00 0.00 0.00 0.00 0.00 0.00 0.00 0.00 0.00 0.00
0.00 0.00 0.00 0.00 0.00 0.00 0.00 0.00 0.00 0.00 0.00 0.00 0.00 0.00 0.00 0.00 0.00 0.00 0.00 0.00 0.00 0.00 0.00 0.00 0.00 0.00 0.00 0.00 0.00 0.00 0.00 0.00 0.00 0.00 0.00 0.00 0.00 0.00 0.00 0.00 0.00 0.00 0.00 0.00
0.00 0.00 0.00 0.00 0.00 0.00 0.00 0.00 0.00 0.00 0.00 0.00 0.00 0.00 0.00 0.00 0.00 0.00 0.00 0.00 0.00 0.00 0.00 0.00 0.00 0.00 0.00 0.00 0.00 0.00 0.00 0.00 0.00 0.00 0.00 0.00 0.00 0.00 0.00 0.00 0.00 0.00 0.00 0.00
0.00 0.00 0.00 0.00 0.00 0.00 0.00 0.00 0.00 0.00 0.00 0.00 0.00 0.00 0.00 0.00 0.00 0.00 0.00 0.00 0.00 0.00 0.00 0.00 0.00 0.00 0.00 0.00 0.00 0.00 0.00 0.00 0.00 0.00 0.00 0.00 0.00 0.00 0.00 0.00 0.00 0.00 0.00 0.00
0.00 0.00 0.00 0.00 0.00 0.00 0.00 0.00 0.00 0.00 0.00 0.00 0.00 0.00 0.00 0.00 0.00 0.00 0.00 0.00 0.00 0.00 0.00 0.00 0.00 0.00 0.00 0.00 0.00 0.00 0.00 0.00 0.00 0.00 0.00 0.00 0.00 0.00 0.00 0.00 0.00 0.00 0.00 0.00
0.00 0.00 0.00 0.00 0.00 0.00 0.00 0.00 0.00 0.00 0.00 0.00 0.00 0.00 0.00 0.00 0.00 0.00 0.00 0.00 0.00 0.00 0.00 0.00 0.00 0.00 0.00 0.00 0.00 0.00 0.00 0.00 0.00 0.00 0.00 0.00 0.00 0.00 0.00 0.00 0.00 0.00 0.00 0.00
0.00 0.00 0.00 0.00 0.00 0.00 0.00 0.00 0.00 0.00 0.00 0.00 0.00 0.00 0.00 0.00 0.00 0.00 0.00 0.00 0.00 0.00 0.00 0.00 0.00 0.00 0.00 0.00 0.00 0.00 0.00 0.00 0.00 0.00 0.00 0.00 0.00 0.00 0.00 0.00 0.00 0.00 0.00 0.00
0.00 0.00 0.00 0.00 0.00 0.00 0.00 0.00 0.00 0.00 0.00 0.00 0.00 0.00 0.00 0.00 0.00 0.00 0.00 0.00 0.00 0.00 0.00 0.00 0.00 0.00 0.00 0.00 0.00 0.00 0.00 0.00 0.00 0.00 0.00 0.00 0.00 0.00 0.00 0.00 0.00 0.01 0.01 0.01
0.00 0.00 0.00 0.00 0.00 0.00 0.00 0.00 0.00 0.00 0.00 0.00 0.00 0.00 0.00 0.00 0.00 0.00 0.00 0.00 0.00 0.00 0.00 0.00 0.00 0.00 0.00 0.00 0.00 0.00 0.00 0.00 0.00 0.00 0.00 0.00 0.00 0.00 0.00 0.00 0.00 0.01 0.03 0.05
0.00 0.00 0.00 0.00 0.00 0.00 0.00 0.00 0.00 0.00 0.00 0.00 0.00 0.00 0.00 0.00 0.00 0.00 0.00 0.00 0.00 0.00 0.00 0.00 0.00 0.00 0.00 0.00 0.00 0.00 0.00 0.00 0.00 0.00 0.00 0.00 0.00 0.01 0.00 0.01 0.00 0.01 0.02 0.04
MSLP
1021.79 1022.31 1022.89 1023.50 1024.15 1024.84 1025.58 1026.39 1027.27 1028.23 1029.21 1030.20 1031.12 1031.92 1032.54 1032.95 1033.15 1033.17 1033.05 1032.87 1032.70 1032.59 1032.57 1032.65 1032.80 1032.96 1033.07 1033.06 1032.87 1032.49 1031.92 1031.19 1030.35 1029.48 1028.64 1027.86 1027.17 1026.56 1026.01 1025.47 1024.92 1024.32 1023.66 1022.94
1022.79 1023.28 1023.78 1024.28 1024.78 1025.30 1025.87 1026.50 1027.23 1028.06 1028.96 1029.89 1030.80 1031.62 1032.29 1032.76 1033.04 1033.14 1033.09 1032.98 1032.86 1032.80 1032.82 1032.94 1033.12 1033.31 1033.45 1033.48 1033.34 1032.99 1032.46 1031.75 1030.94 1030.08 1029.22 1028.40 1027.66 1026.98 1026.35 1025.73 1025.11 1024.44 1023.74 1023.00
1023.86 1024.30 1024.71 1025.08 1025.43 1025.76 1026.11 1026.54 1027.08 1027.74 1028.51 1029.36 1030.24 1031.07 1031.80 1032.38 1032.78 1033.00 1033.09 1033.10 1033.08 1033.09 1033.17 1033.32 1033.53 1033.73 1033.88 1033.92 1033.80 1033.48 1032.97 1032.30 1031.51 1030.65 1029.78 1028.94 1028.14 1027.40 1026.69 1025.99 1025.29 1024.57 1023.82 1023.06
1024.95 1025.33 1025.65 1025.89 1026.06 1026.19 1026.33 1026.53 1026.86 1027.32 1027.94 1028.68 1029.51 1030.35 1031.15 1031.84 1032.39 1032.78 1033.05 1033.22 1033.34 1033.46 1033.61 1033.79 1034.00 1034.20 1034.34 1034.36 1034.24 1033.93 1033.45 1032.80 1032.03 1031.19 1030.32 1029.46 1028.63 1027.83 1027.05 1026.29 1025.53 1024.75 1023.95 1023.16
1026.01 1026.33 1026.55 1026.66 1026.66 1026.60 1026.53 1026.51 1026.62 1026.89 1027.34 1027.96 1028.73 1029.57 1030.42 1031.23 1031.94 1032.52 1032.98 1033.33 1033.61 1033.85 1034.07 1034.29 1034.50 1034.67 1034.77 1034.77 1034.62 1034.32 1033.85 1033.23 1032.49 1031.68 1030.82 1029.96 1029.11 1028.27 1027.45 1026.64 1025.82 1024.99 1024.16 1023.32
1026.96 1027.22 1027.36 1027.35 1027.21 1026.98 1026.72 1026.52 1026.43 1026.52 1026.82 1027.33 1028.02 1028.85 1029.74 1030.65 1031.49 1032.25 1032.89 1033.42 1033.85 1034.20 1034.50 1034.74 1034.94 1035.08 1035.14 1035.09 1034.92 1034.61 1034.15 1033.56 1032.87 1032.10 1031.27 1030.42 1029.57 1028.72 1027.87 1027.02 1026.17 1025.30 1024.42 1023.54
1027.76 1027.97 1028.02 1027.92 1027.67 1027.32 1026.94 1026.59 1026.36 1026.32 1026.49 1026.89 1027.51 1028.31 1029.22 1030.19 1031.14 1032.03 1032.82 1033.49 1034.05 1034.49 1034.84 1035.10 1035.28 1035.38 1035.39 1035.31 1035.11 1034.80 1034.36 1033.81 1033.16 1032.44 1031.66 1030.84 1030.00 1029.15 1028.29 1027.42 1026.54 1025.63 1024.72 1023.78
1028.38 1028.52 1028.52 1028.35 1028.05 1027.64 1027.19 1026.77 1026.47 1026.33 1026.42 1026.74 1027.29 1028.04 1028.93 1029.92 1030.92 1031.89 1032.77 1033.54 1034.18 1034.68 1035.06 1035.33 1035.49 1035.56 1035.53 1035.42 1035.20 1034.90 1034.48 1033.98 1033.39 1032.72 1031.99 1031.21 1030.39 1029.55 1028.68 1027.79 1026.88 1025.95 1025.00 1024.02
1028.80 1028.90 1028.86 1028.66 1028.34 1027.93 1027.48 1027.06 1026.74 1026.58 1026.62 1026.89 1027.38 1028.07 1028.92 1029.87 1030.87 1031.85 1032.76 1033.57 1034.25 1034.79 1035.19 1035.45 1035.59 1035.64 1035.59 1035.45 1035.23 1034.94 1034.56 1034.10 1033.56 1032.94 1032.26 1031.51 1030.72 1029.88 1029.00 1028.10 1027.17 1026.22 1025.23 1024.22
1029.07 1029.13 1029.07 1028.87 1028.58 1028.21 1027.82 1027.45 1027.18 1027.04 1027.08 1027.32 1027.76 1028.38 1029.16 1030.04 1030.99 1031.93 1032.82 1033.62 1034.30 1034.84 1035.24 1035.50 1035.64 1035.67 1035.60 1035.47 1035.25 1034.97 1034.62 1034.20 1033.71 1033.13 1032.48 1031.76 1030.98 1030.14 1029.25 1028.33 1027.38 1026.41 1025.40 1024.37
1029.26 1029.28 1029.20 1029.03 1028.78 1028.49 1028.19 1027.92 1027.73 1027.65 1027.72 1027.94 1028.34 1028.89 1029.58 1030.38 1031.23 1032.10 1032.94 1033.70 1034.36 1034.89 1035.29 1035.55 1035.69 1035.72 1035.66 1035.52 1035.31 1035.05 1034.72 1034.32 1033.85 1033.30 1032.67 1031.96 1031.18 1030.33 1029.43 1028.49 1027.52 1026.53 1025.51 1024.46
1029.43 1029.42 1029.34 1029.19 1028.99 1028.78 1028.58 1028.41 1028.31 1028.31 1028.41 1028.64 1029.00 1029.49 1030.10 1030.80 1031.56 1032.35 1033.12 1033.84 1034.48 1035.00 1035.40 1035.67 1035.81 1035.85 1035.79 1035.66 1035.46 1035.19 1034.87 1034.47 1034.01 1033.46 1032.83 1032.11 1031.32 1030.46 1029.55 1028.59 1027.61 1026.61 1025.58 1024.54
1029.65 1029.61 1029.51 1029.38 1029.22 1029.08 1028.95 1028.88 1028.86 1028.92 1029.06 1029.30 1029.64 1030.08 1030.61 1031.24 1031.93 1032.65 1033.37 1034.06 1034.68 1035.20 1035.61 1035.90 1036.06 1036.10 1036.04 1035.90 1035.69 1035.40 1035.06 1034.64 1034.16 1033.59 1032.95 1032.22 1031.42 1030.55 1029.63 1028.67 1027.68 1026.67 1025.65 1024.61
1029.95 1029.87 1029.75 1029.61 1029.47 1029.36 1029.29 1029.27 1029.31 1029.41 1029.59 1029.83 1030.16 1030.57 1031.07 1031.64 1032.29 1032.98 1033.68 1034.36 1034.99 1035.53 1035.96 1036.26 1036.43 1036.47 1036.40 1036.23 1035.98 1035.65 1035.26 1034.80 1034.28 1033.69 1033.02 1032.28 1031.47 1030.60 1029.69 1028.74 1027.76 1026.76 1025.74 1024.71
1030.29 1030.18 1030.03 1029.87 1029.72 1029.62 1029.56 1029.56 1029.62 1029.75 1029.94 1030.20 1030.53 1030.94 1031.43 1032.00 1032.64 1033.33 1034.05 1034.75 1035.40 1035.96 1036.41 1036.72 1036.89 1036.92 1036.81 1036.59 1036.28 1035.89 1035.43 1034.91 1034.34 1033.71 1033.02 1032.28 1031.48 1030.63 1029.73 1028.80 1027.85 1026.87 1025.86 1024.84
1030.62 1030.47 1030.29 1030.10 1029.93 1029.80 1029.72 1029.72 1029.79 1029.92 1030.12 1030.40 1030.76 1031.19 1031.71 1032.32 1032.99 1033.72 1034.47 1035.21 1035.89 1036.48 1036.94 1037.25 1037.39 1037.38 1037.22 1036.93 1036.53 1036.06 1035.52 1034.93 1034.30 1033.64 1032.94 1032.20 1031.42 1030.60 1029.75 1028.86 1027.94 1026.98 1025.99 1024.97
1030.84 1030.67 1030.46 1030.24 1030.03 1029.87 1029.77 1029.75 1029.81 1029.96 1030.19 1030.50 1030.90 1031.39 1031.98 1032.65 1033.39 1034.17 1034.97 1035.75 1036.45 1037.05 1037.50 1037.77 1037.87 1037.79 1037.55 1037.17 1036.68 1036.11 1035.49 1034.83 1034.15 1033.46 1032.75 1032.03 1031.29 1030.52 1029.71 1028.87 1028.00 1027.08 1026.11 1025.10
1030.87 1030.69 1030.46 1030.22 1029.99 1029.81 1029.70 1029.68 1029.75 1029.92 1030.19 1030.57 1031.04 1031.62 1032.29 1033.04 1033.85 1034.70 1035.54 1036.33 1037.03 1037.60 1038.01 1038.23 1038.25 1038.08 1037.75 1037.27 1036.69 1036.03 1035.34 1034.62 1033.90 1033.19 1032.48 1031.78 1031.07 1030.35 1029.60 1028.82 1027.99 1027.11 1026.18 1025.18
1030.65 1030.48 1030.26 1030.02 1029.80 1029.63 1029.54 1029.54 1029.65 1029.88 1030.23 1030.70 1031.27 1031.95 1032.71 1033.55 1034.43 1035.31 1036.16 1036.94 1037.60 1038.11 1038.44 1038.57 1038.49 1038.23 1037.80 1037.23 1036.56 1035.83 1035.07 1034.31 1033.56 1032.84 1032.14 1031.46 1030.79 1030.11 1029.41 1028.68 1027.90 1027.07 1026.17 1025.20
1030.20 1030.06 1029.86 1029.66 1029.48 1029.36 1029.32 1029.40 1029.59 1029.92 1030.38 1030.96 1031.65 1032.44 1033.30 1034.20 1035.11 1036.00 1036.83 1037.55 1038.13 1038.54 1038.76 1038.78 1038.59 1038.23 1037.71 1037.07 1036.34 1035.56 1034.76 1033.97 1033.21 1032.48 1031.78 1031.11 1030.45 1029.80 1029.14 1028.45 1027.72 1026.93 1026.08 1025.16
1029.59 1029.47 1029.33 1029.19 1029.09 1029.05 1029.12 1029.31 1029.63 1030.09 1030.69 1031.40 1032.22 1033.11 1034.04 1034.99 1035.91 1036.76 1037.52 1038.14 1038.60 1038.88 1038.97 1038.86 1038.57 1038.11 1037.52 1036.83 1036.07 1035.27 1034.46 1033.66 1032.89 1032.15 1031.44 1030.77 1030.11 1029.47 1028.82 1028.15 1027.45 1026.71 1025.92 1025.07
1028.91 1028.83 1028.75 1028.69 1028.69 1028.78 1028.99 1029.32 1029.81 1030.43 1031.18 1032.03 1032.96 1033.94 1034.93 1035.88 1036.76 1037.55 1038.19 1038.68 1039.00 1039.13 1039.07 1038.84 1038.45 1037.93 1037.30 1036.58 1035.82 1035.02 1034.22 1033.43 1032.66 1031.91 1031.18 1030.48 1029.80 1029.13 1028.47 1027.81 1027.14 1026.44 1025.72 1024.96
1028.27 1028.23 1028.22 1028.26 1028.38 1028.61 1028.98 1029.48 1030.14 1030.92 1031.83 1032.81 1033.84 1034.88 1035.89 1036.82 1037.64 1038.31 1038.83 1039.17 1039.32 1039.30 1039.11 1038.77 1038.30 1037.73 1037.08 1036.38 1035.63 1034.86 1034.09 1033.31 1032.53 1031.77 1031.01 1030.27 1029.55 1028.84 1028.15 1027.48 1026.82 1026.17 1025.52 1024.85
1027.77 1027.76 1027.81 1027.95 1028.20 1028.59 1029.11 1029.79 1030.62 1031.56 1032.60 1033.69 1034.79 1035.87 1036.86 1037.74 1038.46 1039.02 1039.39 1039.57 1039.58 1039.42 1039.11 1038.68 1038.16 1037.57 1036.92 1036.24 1035.53 1034.81 1034.06 1033.30 1032.53 1031.74 1030.95 1030.15 1029.38 1028.62 1027.89 1027.20 1026.55 1025.94 1025.35 1024.79
1027.43 1027.45 1027.57 1027.81 1028.18 1028.71 1029.40 1030.23 1031.21 1032.28 1033.42 1034.59 1035.73 1036.80 1037.76 1038.56 1039.19 1039.62 1039.85 1039.90 1039.77 1039.50 1039.11 1038.62 1038.07 1037.47 1036.85 1036.20 1035.53 1034.84 1034.13 1033.38 1032.60 1031.80 1030.97 1030.13 1029.29 1028.49 1027.72 1027.01 1026.37 1025.79 1025.26 1024.79
1027.24 1027.29 1027.47 1027.80 1028.30 1028.96 1029.79 1030.76 1031.85 1033.02 1034.24 1035.44 1036.59 1037.63 1038.53 1039.25 1039.77 1040.09 1040.21 1040.15 1039.93 1039.57 1039.12 1038.60 1038.04 1037.45 1036.85 1036.23 1035.60 1034.94 1034.25 1033.51 1032.73 1031.90 1031.04 1030.17 1029.29 1028.45 1027.66 1026.94 1026.30 1025.75 1025.27 1024.87
Thickness
5696 5690 5672 5665 5665 5668 5667 5660 5645 5624 5607 5602 5591 5577 5565 5558 5554 5547 5538 5528 5517 5507 5495 5481 5468 5456 5444 5434 5424 5414 5406 5399 5394 5390 5387 5387 5385 5381 5378 5374 5372 5373 5376 5381
5692 5670 5661 5661 5661 5663 5661 5652 5635 5610 5599 5596 5581 5570 5560 5552 5542 5533 5524 5514 5503 5491 5481 5466 5451 5438 5425 5413 5400 5389 5381 5376 5371 5366 5364 5363 5364 5364 5363 5361 5358 5357 5357 5359
5674 5658 5658 5659 5658 5657 5651 5648 5639 5618 5593 5587 5578 5567 5558 5545 5535 5525 5515 5503 5492 5477 5465 5451 5435 5420 5406 5392 5379 5368 5362 5359 5355 5350 5349 5349 5350 5350 5349 5348 5345 5342 5341 5341
5664 5656 5654 5654 5647 5646 5646 5634 5628 5613 5606 5601 5583 5600 5569 5545 5530 5520 5508 5494 5479 5464 5448 5433 5418 5402 5386 5372 5360 5352 5347 5344 5340 5337 5335 5333 5335 5335 5333 5331 5331 5330 5328 5327
5653 5648 5647 5646 5639 5635 5635 5623 5621 5613 5611 5603 5586 5584 5579 5539 5526 5513 5498 5483 5467 5450 5433 5417 5400 5382 5368 5356 5347 5339 5334 5330 5326 5322 5318 5317 5316 5315 5315 5315 5316 5317 5317 5316
5648 5642 5638 5635 5634 5629 5625 5621 5615 5610 5609 5610 5600 5584 5584 5541 5519 5501 5486 5470 5455 5437 5419 5402 5384 5366 5352 5342 5334 5327 5322 5317 5311 5306 5302 5298 5297 5297 5298 5299 5301 5303 5304 5305
5645 5639 5635 5631 5635 5633 5630 5631 5632 5627 5621 5618 5584 5578 5563 5523 5502 5484 5469 5456 5442 5423 5405 5386 5369 5352 5340 5330 5323 5315 5309 5302 5295 5289 5284 5280 5277 5276 5276 5278 5280 5284 5289 5292
5647 5641 5627 5623 5619 5618 5616 5619 5616 5610 5618 5615 5582 5573 5541 5510 5489 5473 5458 5444 5428 5409 5389 5371 5354 5339 5328 5318 5310 5302 5294 5286 5279 5272 5266 5262 5258 5255 5255 5255 5258 5262 5268 5275
5640 5633 5621 5614 5610 5610 5612 5605 5595 5595 5593 5582 5588 5553 5515 5497 5482 5466 5450 5434 5417 5396 5375 5358 5343 5328 5316 5306 5297 5287 5279 5272 5264 5257 5252 5248 5243 5240 5238 5237 5239 5242 5248 5256
5624 5625 5620 5612 5608 5600 5600 5593 5590 5589 5584 5587 5591 5561 5534 5490 5472 5455 5440 5423 5405 5383 5363 5347 5333 5318 5305 5293 5283 5274 5266 5259 5252 5246 5240 5236 5231 5227 5225 5224 5224 5226 5230 5238
5615 5619 5620 5612 5608 5604 5593 5586 5581 5576 5570 5567 5568 5558 5509 5480 5458 5443 5428 5411 5390 5371 5353 5337 5322 5307 5294 5283 5273 5265 5257 5250 5244 5237 5231 5226 5222 5217 5214 5211 5210 5211 5215 5221
5606 5612 5620 5611 5593 5584 5585 5582 5577 5573 5569 5552 5546 5535 5488 5468 5450 5434 5419 5400 5378 5359 5342 5327 5312 5297 5285 5275 5265 5257 5249 5242 5235 5228 5222 5216 5211 5207 5203 5200 5198 5198 5200 5205
5603 5608 5623 5621 5599 5583 5578 5569 5563 5556 5549 5542 5532 5528 5477 5462 5446 5430 5411 5390 5369 5351 5334 5319 5303 5289 5277 5267 5258 5250 5242 5235 5227 5219 5213 5207 5201 5196 5191 5188 5186 5186 5188 5191
5596 5602 5609 5612 5602 5583 5574 5563 5553 5546 5544 5540 5527 5516 5483 5460 5440 5423 5403 5379 5361 5342 5326 5310 5295 5282 5271 5261 5252 5244 5236 5227 5219 5211 5204 5197 5191 5185 5180 5177 5175 5174 5175 5178
5593 5599 5594 5589 5573 5567 5566 5562 5550 5539 5536 5526 5519 5491 5475 5449 5430 5413 5392 5368 5350 5334 5318 5302 5288 5276 5265 5256 5247 5238 5230 5221 5212 5204 5196 5189 5183 5177 5172 5168 5166 5164 5164 5166
5588 5589 5584 5588 5567 5560 5559 5557 5544 5532 5521 5509 5495 5482 5460 5440 5424 5408 5383 5357 5340 5325 5309 5294 5280 5269 5259 5250 5242 5233 5224 5215 5206 5197 5190 5183 5177 5172 5167 5163 5159 5156 5155 5155
5583 5583 5586 5592 5573 5567 5576 5562 5542 5529 5515 5502 5490 5476 5449 5433 5416 5395 5368 5346 5330 5314 5299 5285 5273 5262 5253 5244 5236 5227 5219 5209 5201 5192 5185 5178 5172 5166 5162 5158 5153 5148 5146 5145
5579 5577 5574 5576 5577 5573 5575 5537 5532 5521 5508 5490 5475 5458 5440 5422 5403 5376 5351 5335 5320 5304 5290 5278 5267 5257 5248 5239 5231 5223 5214 5205 5197 5189 5181 5175 5168 5161 5156 5151 5146 5141 5136 5134
5567 5570 5568 5561 5569 5582 5555 5531 5519 5511 5505 5482 5466 5450 5433 5414 5399 5375 5343 5325 5310 5295 5282 5271 5262 5253 5245 5237 5228 5220 5212 5203 5194 5186 5179 5172 5165 5158 5151 5144 5139 5132 5126 5124
5554 5557 5564 5547 5560 5574 5566 5529 5514 5504 5499 5476 5458 5443 5425 5405 5400 5376 5334 5318 5302 5288 5277 5267 5259 5251 5243 5235 5226 5218 5210 5201 5193 5184 5175 5168 5161 5153 5145 5136 5128 5119 5113 5111
5560 5557 5557 5551 5553 5575 5541 5517 5504 5507 5506 5470 5452 5435 5414 5397 5378 5349 5328 5312 5297 5284 5273 5264 5257 5249 5241 5232 5224 5216 5208 5200 5190 5181 5173 5166 5157 5148 5138 5128 5115 5104 5098 5096
5580 5570 5563 5551 5550 5559 5526 5511 5512 5510 5481 5464 5445 5424 5403 5384 5361 5341 5323 5306 5291 5280 5271 5262 5254 5248 5240 5232 5223 5215 5208 5198 5188 5180 5173 5164 5154 5144 5134 5122 5108 5095 5086 5084
5577 5579 5578 5569 5571 5545 5530 5521 5506 5491 5475 5456 5434 5410 5390 5371 5353 5334 5317 5302 5288 5278 5269 5261 5252 5246 5240 5232 5223 5215 5207 5197 5188 5181 5172 5163 5153 5143 5132 5119 5104 5089 5080 5077
5572 5553 5558 5557 5556 5537 5522 5509 5494 5481 5465 5443 5421 5398 5379 5361 5342 5325 5311 5298 5286 5276 5268 5260 5253 5247 5240 5232 5223 5214 5205 5196 5188 5181 5174 5165 5156 5145 5133 5119 5103 5087 5078 5075
5584 5553 5553 5556 5545 5526 5515 5505 5488 5466 5448 5427 5407 5388 5371 5353 5335 5318 5304 5293 5282 5274 5267 5260 5252 5246 5239 5231 5223 5215 5206 5198 5191 5184 5177 5169 5160 5149 5136 5122 5105 5090 5078 5073
5571 5566 5566 5573 5556 5538 5523 5503 5480 5459 5440 5418 5398 5379 5363 5347 5330 5314 5302 5290 5280 5273 5266 5259 5252 5245 5238 5231 5223 5215 5208 5200 5194 5189 5181 5173 5164 5152 5140 5128 5113 5097 5084 5076